GSAT-30

Last updated on Tue Sep 22 2026 00:03:15 GMT+0000 (Coordinated Universal Time)

1 45026U 20005A 26264.62897135 -.00000169 00000+0 00000+0 0 9990 2 45026 0.0309 100.9038 0001923 36.8566 172.1912 1.00272413 24471
UTC large
Height (km)
Speed (km/s)
/
Latitude / Longitude
Inclination (degrees)
Orbital Period (minutes)
Azimuth
Elevation
Range (km)
Doppler Factor

Next 0 passes for location: London (51.5072 / 0.1276)

No passes found over London.
GSAT-30